Year,Month,Day,Hour,Minute,Value (Times are PST for temperature in C)
2019,12,03,00,00,4.40
2019,12,03,00,01,4.40
2019,12,03,00,02,4.40
2019,12,03,00,03,4.40
2019,12,03,00,04,4.40
2019,12,03,00,05,4.40
2019,12,03,00,06,4.50
2019,12,03,00,07,4.40
2019,12,03,00,08,4.40
2019,12,03,00,09,4.40
2019,12,03,00,10,4.40
2019,12,03,00,11,4.40
2019,12,03,00,12,4.40
2019,12,03,00,13,4.40
2019,12,03,00,14,4.40
2019,12,03,00,15,4.40
2019,12,03,00,16,4.40
2019,12,03,00,17,4.40
2019,12,03,00,18,4.50
2019,12,03,00,19,4.40
2019,12,03,00,20,4.50
2019,12,03,00,21,4.40
2019,12,03,00,22,4.40
2019,12,03,00,23,4.40
2019,12,03,00,24,4.40
2019,12,03,00,25,4.40
2019,12,03,00,26,4.40
2019,12,03,00,27,4.40
2019,12,03,00,28,4.40
2019,12,03,00,29,4.40
2019,12,03,00,30,4.40
2019,12,03,00,31,4.40
2019,12,03,00,32,4.40
2019,12,03,00,33,4.40
2019,12,03,00,34,4.40
2019,12,03,00,35,4.40
2019,12,03,00,36,4.40
2019,12,03,00,37,4.40
2019,12,03,00,38,4.40
2019,12,03,00,39,4.40
2019,12,03,00,40,4.40
2019,12,03,00,41,4.40
2019,12,03,00,42,4.40
2019,12,03,00,43,4.40
2019,12,03,00,44,4.40
2019,12,03,00,45,4.40
2019,12,03,00,46,4.40
2019,12,03,00,47,4.40
2019,12,03,00,48,4.40
2019,12,03,00,49,4.40
2019,12,03,00,50,4.40
2019,12,03,00,51,4.40
2019,12,03,00,52,4.40
2019,12,03,00,53,4.40
2019,12,03,00,54,4.40
2019,12,03,00,55,4.40
2019,12,03,00,56,4.40
2019,12,03,00,57,4.40
2019,12,03,00,58,4.40
2019,12,03,00,59,4.40
2019,12,03,01,00,4.40
2019,12,03,01,01,4.40
2019,12,03,01,02,4.40
2019,12,03,01,03,4.40
2019,12,03,01,04,4.40
2019,12,03,01,05,4.40
2019,12,03,01,06,4.40
2019,12,03,01,07,4.40
2019,12,03,01,08,4.40
2019,12,03,01,09,4.40
2019,12,03,01,10,4.40
2019,12,03,01,11,4.40
2019,12,03,01,12,4.40
2019,12,03,01,13,4.40
2019,12,03,01,14,4.40
2019,12,03,01,15,4.40
2019,12,03,01,16,4.40
2019,12,03,01,17,4.40
2019,12,03,01,18,4.40
2019,12,03,01,19,4.40
2019,12,03,01,20,4.40
2019,12,03,01,21,4.40
2019,12,03,01,22,4.40
2019,12,03,01,23,4.40
2019,12,03,01,24,4.40
2019,12,03,01,25,4.40
2019,12,03,01,26,4.40
2019,12,03,01,27,4.40
2019,12,03,01,28,4.40
2019,12,03,01,29,4.40
2019,12,03,01,30,4.40
2019,12,03,01,31,4.40
2019,12,03,01,32,4.40
2019,12,03,01,33,4.40
2019,12,03,01,34,4.40
2019,12,03,01,35,4.40
2019,12,03,01,36,4.40
2019,12,03,01,37,4.40
2019,12,03,01,38,4.40
2019,12,03,01,39,4.40
2019,12,03,01,40,4.50
2019,12,03,01,41,4.50
2019,12,03,01,42,4.50
2019,12,03,01,43,4.50
2019,12,03,01,44,4.50
2019,12,03,01,45,4.50
2019,12,03,01,46,4.50
2019,12,03,01,47,4.50
2019,12,03,01,48,4.50
2019,12,03,01,49,4.50
2019,12,03,01,50,4.50
2019,12,03,01,51,4.50
2019,12,03,01,52,4.50
2019,12,03,01,53,4.50
2019,12,03,01,54,4.50
2019,12,03,01,55,4.50
2019,12,03,01,56,4.50
2019,12,03,01,57,4.50
2019,12,03,01,58,4.50
2019,12,03,01,59,4.50
2019,12,03,02,00,4.50
2019,12,03,02,01,4.50
2019,12,03,02,02,4.50
2019,12,03,02,03,4.50
2019,12,03,02,04,4.50
2019,12,03,02,05,4.60
2019,12,03,02,06,4.60
2019,12,03,02,07,4.60
2019,12,03,02,08,4.60
2019,12,03,02,09,4.60
2019,12,03,02,10,4.60
2019,12,03,02,11,4.50
2019,12,03,02,12,4.50
2019,12,03,02,13,4.50
2019,12,03,02,14,4.50
2019,12,03,02,15,4.50
2019,12,03,02,16,4.50
2019,12,03,02,17,4.50
2019,12,03,02,18,4.50
2019,12,03,02,19,4.50
2019,12,03,02,20,4.50
2019,12,03,02,21,4.50
2019,12,03,02,22,4.50
2019,12,03,02,23,4.50
2019,12,03,02,24,4.50
2019,12,03,02,25,4.50
2019,12,03,02,26,4.60
2019,12,03,02,27,4.60
2019,12,03,02,28,4.60
2019,12,03,02,29,4.60
2019,12,03,02,30,4.60
2019,12,03,02,31,4.60
2019,12,03,02,32,4.60
2019,12,03,02,33,4.60
2019,12,03,02,34,4.60
2019,12,03,02,35,4.60
2019,12,03,02,36,4.60
2019,12,03,02,37,4.60
2019,12,03,02,38,4.60
2019,12,03,02,39,4.60
2019,12,03,02,40,4.60
2019,12,03,02,41,4.60
2019,12,03,02,42,4.60
2019,12,03,02,43,4.60
2019,12,03,02,44,4.60
2019,12,03,02,45,4.50
2019,12,03,02,46,4.60
2019,12,03,02,47,4.60
2019,12,03,02,48,4.50
2019,12,03,02,49,4.60
2019,12,03,02,50,4.60
2019,12,03,02,51,4.50
2019,12,03,02,52,4.50
2019,12,03,02,53,4.50
2019,12,03,02,54,4.50
2019,12,03,02,55,4.50
2019,12,03,02,56,4.50
2019,12,03,02,57,4.50
2019,12,03,02,58,4.50
2019,12,03,02,59,4.50
2019,12,03,03,00,4.50
2019,12,03,03,01,4.50
2019,12,03,03,02,4.50
2019,12,03,03,03,4.50
2019,12,03,03,04,4.50
2019,12,03,03,05,4.50
2019,12,03,03,06,4.50
2019,12,03,03,07,4.50
2019,12,03,03,08,4.50
2019,12,03,03,09,4.50
2019,12,03,03,10,4.50
2019,12,03,03,11,4.50
2019,12,03,03,12,4.60
2019,12,03,03,13,4.60
2019,12,03,03,14,4.60
2019,12,03,03,15,4.60
2019,12,03,03,16,4.60
2019,12,03,03,17,4.60
2019,12,03,03,18,4.60
2019,12,03,03,19,4.60
2019,12,03,03,20,4.50
2019,12,03,03,21,4.50
2019,12,03,03,22,4.50
2019,12,03,03,23,4.50
2019,12,03,03,24,4.50
2019,12,03,03,25,4.50
2019,12,03,03,26,4.50
2019,12,03,03,27,4.50
2019,12,03,03,28,4.50
2019,12,03,03,29,4.50
2019,12,03,03,30,4.50
2019,12,03,03,31,4.50
2019,12,03,03,32,4.50
2019,12,03,03,33,4.50
2019,12,03,03,34,4.60
2019,12,03,03,35,4.60
2019,12,03,03,36,4.60
2019,12,03,03,37,4.60
2019,12,03,03,38,4.60
2019,12,03,03,39,4.60
2019,12,03,03,40,4.60
2019,12,03,03,41,4.60
2019,12,03,03,42,4.60
2019,12,03,03,43,4.60
2019,12,03,03,44,4.60
2019,12,03,03,45,4.60
2019,12,03,03,46,4.60
2019,12,03,03,47,4.60
2019,12,03,03,48,4.60
2019,12,03,03,49,4.60
2019,12,03,03,50,4.60
2019,12,03,03,51,4.60
2019,12,03,03,52,4.60
2019,12,03,03,53,4.60
2019,12,03,03,54,4.50
2019,12,03,03,55,4.50
2019,12,03,03,56,4.50
2019,12,03,03,57,4.50
2019,12,03,03,58,4.50
2019,12,03,03,59,4.50
2019,12,03,04,00,4.50
2019,12,03,04,01,4.50
2019,12,03,04,02,4.50
2019,12,03,04,03,4.50
2019,12,03,04,04,4.50
2019,12,03,04,05,4.50
2019,12,03,04,06,4.50
2019,12,03,04,07,4.50
2019,12,03,04,08,4.50
2019,12,03,04,09,4.50
2019,12,03,04,10,4.60
2019,12,03,04,11,4.60
2019,12,03,04,12,4.60
2019,12,03,04,13,4.60
2019,12,03,04,14,4.60
2019,12,03,04,15,4.60
2019,12,03,04,16,4.60
2019,12,03,04,17,4.60
2019,12,03,04,18,4.60
2019,12,03,04,19,4.60
2019,12,03,04,20,4.60
2019,12,03,04,21,4.70
2019,12,03,04,22,4.70
2019,12,03,04,23,4.70
2019,12,03,04,24,4.70
2019,12,03,04,25,4.70
2019,12,03,04,26,4.70
2019,12,03,04,27,4.70
2019,12,03,04,28,4.70
2019,12,03,04,29,4.70
2019,12,03,04,30,4.70
2019,12,03,04,31,4.70
2019,12,03,04,32,4.70
2019,12,03,04,33,4.70
2019,12,03,04,34,4.70
2019,12,03,04,35,4.70
2019,12,03,04,36,4.70
2019,12,03,04,37,4.70
2019,12,03,04,38,4.70
2019,12,03,04,39,4.70
2019,12,03,04,40,4.70
2019,12,03,04,41,4.70
2019,12,03,04,42,4.70
2019,12,03,04,43,4.70
2019,12,03,04,44,4.70
2019,12,03,04,45,4.70
2019,12,03,04,46,4.70
2019,12,03,04,47,4.70
2019,12,03,04,48,4.70
2019,12,03,04,49,4.70
2019,12,03,04,50,4.70
2019,12,03,04,51,4.70
2019,12,03,04,52,4.70
2019,12,03,04,53,4.70
2019,12,03,04,54,4.70
2019,12,03,09,09,5.10
2019,12,03,09,10,5.10
2019,12,03,09,11,5.10
2019,12,03,09,12,5.10
2019,12,03,09,13,5.10
2019,12,03,09,14,5.10
2019,12,03,09,15,5.20
2019,12,03,09,16,5.20
2019,12,03,09,17,5.20
2019,12,03,09,18,5.20
2019,12,03,09,19,5.20
2019,12,03,09,20,5.20
2019,12,03,09,21,5.20
2019,12,03,09,22,5.20
2019,12,03,09,23,5.20
2019,12,03,09,24,5.20
2019,12,03,09,25,5.30
2019,12,03,09,26,5.30
2019,12,03,09,27,5.30
2019,12,03,09,28,5.30
2019,12,03,09,29,5.30
2019,12,03,09,30,5.30
2019,12,03,09,31,5.30
2019,12,03,09,32,5.30
2019,12,03,09,33,5.30
2019,12,03,09,34,5.30
2019,12,03,09,35,5.30
2019,12,03,09,36,5.30
2019,12,03,09,37,5.40
2019,12,03,09,38,5.40
2019,12,03,09,39,5.40
2019,12,03,09,40,5.40
2019,12,03,09,41,5.40
2019,12,03,09,42,5.40
2019,12,03,09,43,5.40
2019,12,03,09,44,5.40
2019,12,03,09,45,5.40
2019,12,03,09,46,5.40
2019,12,03,09,47,5.40
2019,12,03,09,48,5.40
2019,12,03,09,49,5.40
2019,12,03,09,50,5.40
2019,12,03,09,51,5.50
2019,12,03,09,52,5.50
2019,12,03,09,53,5.50
2019,12,03,09,54,5.50
2019,12,03,09,55,5.50
2019,12,03,09,56,5.60
2019,12,03,09,57,5.60
2019,12,03,09,58,5.60
2019,12,03,09,59,5.60
2019,12,03,10,00,5.60
2019,12,03,10,01,5.60
2019,12,03,10,02,5.60
2019,12,03,10,03,5.70
2019,12,03,10,04,5.70
2019,12,03,10,05,5.70
2019,12,03,10,06,5.70
2019,12,03,10,07,5.70
2019,12,03,10,08,5.70
2019,12,03,10,09,5.70
2019,12,03,10,10,5.70
2019,12,03,10,11,5.80
2019,12,03,10,12,5.80
2019,12,03,10,13,5.80
2019,12,03,10,14,5.80
2019,12,03,10,15,5.80
2019,12,03,10,16,5.80
2019,12,03,10,17,5.80
2019,12,03,10,18,5.80
2019,12,03,10,19,5.80
2019,12,03,10,20,5.80
2019,12,03,10,21,5.80
2019,12,03,10,22,5.80
2019,12,03,10,23,5.80
2019,12,03,10,24,5.80
2019,12,03,10,25,5.80
2019,12,03,10,26,5.80
2019,12,03,10,27,5.80
2019,12,03,10,28,5.80
2019,12,03,10,29,5.80
2019,12,03,10,30,5.80
2019,12,03,10,31,5.80
2019,12,03,10,32,5.80
2019,12,03,10,33,5.80
2019,12,03,10,34,5.90
2019,12,03,10,35,5.90
2019,12,03,10,36,5.90
2019,12,03,10,37,5.90
2019,12,03,10,38,5.90
2019,12,03,10,39,5.90
2019,12,03,10,40,5.90
2019,12,03,10,41,6.00
2019,12,03,10,42,6.00
2019,12,03,10,43,6.00
2019,12,03,10,44,6.00
2019,12,03,10,45,6.00
2019,12,03,10,46,6.10
2019,12,03,10,47,6.10
2019,12,03,10,48,6.10
2019,12,03,10,49,6.10
2019,12,03,10,50,6.10
2019,12,03,10,51,6.10
2019,12,03,10,52,6.10
2019,12,03,10,53,6.10
2019,12,03,10,54,6.10
2019,12,03,10,55,6.10
2019,12,03,10,56,6.10
2019,12,03,10,57,6.20
2019,12,03,10,58,6.20
2019,12,03,10,59,6.20
2019,12,03,11,00,6.20
2019,12,03,11,01,6.20
2019,12,03,11,02,6.20
2019,12,03,11,03,6.20
2019,12,03,11,04,6.30
2019,12,03,11,05,6.30
2019,12,03,11,06,6.30
2019,12,03,11,07,6.30
2019,12,03,11,08,6.30
2019,12,03,11,09,6.30
2019,12,03,11,10,6.30
2019,12,03,11,11,6.30
2019,12,03,11,12,6.30
2019,12,03,11,13,6.30
2019,12,03,11,14,6.30
2019,12,03,11,15,6.30
2019,12,03,11,16,6.30
2019,12,03,11,17,6.30
2019,12,03,11,18,6.30
2019,12,03,11,19,6.30
2019,12,03,11,20,6.30
2019,12,03,11,21,6.40
2019,12,03,11,22,6.40
2019,12,03,11,23,6.40
2019,12,03,11,24,6.40
2019,12,03,11,25,6.40
2019,12,03,11,26,6.50
2019,12,03,11,27,6.50
2019,12,03,11,28,6.50
2019,12,03,11,29,6.50
2019,12,03,11,30,6.50
2019,12,03,11,31,6.50
2019,12,03,11,32,6.50
2019,12,03,11,33,6.50
2019,12,03,11,34,6.50
2019,12,03,11,35,6.50
2019,12,03,11,36,6.50
2019,12,03,11,37,6.40
2019,12,03,11,38,6.40
2019,12,03,11,39,6.40
2019,12,03,11,40,6.40
2019,12,03,11,41,6.40
2019,12,03,11,42,6.40
2019,12,03,11,43,6.40
2019,12,03,11,44,6.40
2019,12,03,11,45,6.50
2019,12,03,11,46,6.50
2019,12,03,11,47,6.50
2019,12,03,11,48,6.50
2019,12,03,11,49,6.50
2019,12,03,11,50,6.50
2019,12,03,11,51,6.60
2019,12,03,11,52,6.50
2019,12,03,11,53,6.60
2019,12,03,11,54,6.60
2019,12,03,11,55,6.60
2019,12,03,11,56,6.60
2019,12,03,11,57,6.60
2019,12,03,11,58,6.60
2019,12,03,11,59,6.60
2019,12,03,12,00,6.60
2019,12,03,12,01,6.60
2019,12,03,12,02,6.70
2019,12,03,12,03,6.70
2019,12,03,12,04,6.70
2019,12,03,12,05,6.70
2019,12,03,12,06,6.70
2019,12,03,12,07,6.80
2019,12,03,12,08,6.80
2019,12,03,12,09,6.80
2019,12,03,12,10,6.80
2019,12,03,12,11,6.80
2019,12,03,12,12,6.80
2019,12,03,12,13,6.80
2019,12,03,12,14,6.80
2019,12,03,12,15,6.80
2019,12,03,12,16,6.90
2019,12,03,12,17,6.90
2019,12,03,12,18,6.90
2019,12,03,12,19,6.90
2019,12,03,12,20,6.90
2019,12,03,12,21,6.90
2019,12,03,12,22,6.90
2019,12,03,12,23,6.90
2019,12,03,12,24,6.90
2019,12,03,12,25,6.90
2019,12,03,12,26,6.90
2019,12,03,12,27,6.90
2019,12,03,12,28,6.90
2019,12,03,12,29,6.90
2019,12,03,12,30,6.90
2019,12,03,12,31,6.90
2019,12,03,12,32,7.00
2019,12,03,12,33,7.00
2019,12,03,12,34,7.00
2019,12,03,12,35,7.00
2019,12,03,12,36,7.10
2019,12,03,12,37,7.10
2019,12,03,12,38,7.10
2019,12,03,12,39,7.20
2019,12,03,12,40,7.20
2019,12,03,12,41,7.20
2019,12,03,12,42,7.30
2019,12,03,12,43,7.30
2019,12,03,12,44,7.30
2019,12,03,12,45,7.30
2019,12,03,12,46,7.40
2019,12,03,12,47,7.40
2019,12,03,12,48,7.40
2019,12,03,12,49,7.40
2019,12,03,12,50,7.40
2019,12,03,12,51,7.40
2019,12,03,12,52,7.40
2019,12,03,12,53,7.40
2019,12,03,12,54,7.40
2019,12,03,12,55,7.40
2019,12,03,12,56,7.50
2019,12,03,12,57,7.50
2019,12,03,12,58,7.50
2019,12,03,12,59,7.50
2019,12,03,13,00,7.60
2019,12,03,13,01,7.60
2019,12,03,13,02,7.60
2019,12,03,13,03,7.60
2019,12,03,13,04,7.70
2019,12,03,13,05,7.70
2019,12,03,13,06,7.70
2019,12,03,13,07,7.70
2019,12,03,13,08,7.80
2019,12,03,13,09,7.80
2019,12,03,13,10,7.80
2019,12,03,13,11,7.80
2019,12,03,13,12,7.90
2019,12,03,13,13,7.90
2019,12,03,13,14,7.90
2019,12,03,13,15,8.00
2019,12,03,13,16,8.10
2019,12,03,13,17,8.10
2019,12,03,13,18,8.10
2019,12,03,13,19,8.10
2019,12,03,13,20,8.10
2019,12,03,13,21,8.20
2019,12,03,13,22,8.20
2019,12,03,13,23,8.20
2019,12,03,13,24,8.20
2019,12,03,13,25,8.30
2019,12,03,13,26,8.30
2019,12,03,13,27,8.30
2019,12,03,13,28,8.30
2019,12,03,13,29,8.30
2019,12,03,13,30,8.30
2019,12,03,13,31,8.40
2019,12,03,13,32,8.40
2019,12,03,13,33,8.40
2019,12,03,13,34,8.50
2019,12,03,13,35,8.50
2019,12,03,13,36,8.50
2019,12,03,13,37,8.50
2019,12,03,13,38,8.60
2019,12,03,13,39,8.60
2019,12,03,13,40,8.60
2019,12,03,13,41,8.60
2019,12,03,13,42,8.60
2019,12,03,13,43,8.60
2019,12,03,13,44,8.60
2019,12,03,13,45,8.60
2019,12,03,13,46,8.60
2019,12,03,13,47,8.50
2019,12,03,13,48,8.50
2019,12,03,13,49,8.50
2019,12,03,13,50,8.40
2019,12,03,13,51,8.40
2019,12,03,13,52,8.40
2019,12,03,13,53,8.40
2019,12,03,13,54,8.30
2019,12,03,13,55,8.30
2019,12,03,13,56,8.30
2019,12,03,13,57,8.30
2019,12,03,13,58,8.30
2019,12,03,13,59,8.30
2019,12,03,14,00,8.30
2019,12,03,14,01,8.30
2019,12,03,14,02,8.30
2019,12,03,14,03,8.30
2019,12,03,14,04,8.30
2019,12,03,14,05,8.30
2019,12,03,14,06,8.30
2019,12,03,14,07,8.30
2019,12,03,14,08,8.30
2019,12,03,14,09,8.30
2019,12,03,14,10,8.30
2019,12,03,14,11,8.30
2019,12,03,14,12,8.30
2019,12,03,14,13,8.20
2019,12,03,14,14,8.20
2019,12,03,14,15,8.20
2019,12,03,14,16,8.20
2019,12,03,14,17,8.20
2019,12,03,14,18,8.20
2019,12,03,14,19,8.20
2019,12,03,14,20,8.20
2019,12,03,14,21,8.20
2019,12,03,14,22,8.20
2019,12,03,14,23,8.20
2019,12,03,14,24,8.20
2019,12,03,14,25,8.20
2019,12,03,14,26,8.20
2019,12,03,14,27,8.20
2019,12,03,14,28,8.10
2019,12,03,14,29,8.10
2019,12,03,14,30,8.10
2019,12,03,14,31,8.10
2019,12,03,14,32,8.10
2019,12,03,14,33,8.10
2019,12,03,14,34,8.10
2019,12,03,14,35,8.10
2019,12,03,14,36,8.10
2019,12,03,14,37,8.10
2019,12,03,14,38,8.10
2019,12,03,14,39,8.10
2019,12,03,14,40,8.10
2019,12,03,14,41,8.10
2019,12,03,14,42,8.20
2019,12,03,14,43,8.20
2019,12,03,14,44,8.20
2019,12,03,14,45,8.20
2019,12,03,14,46,8.10
2019,12,03,14,47,8.10
2019,12,03,14,48,8.10
2019,12,03,14,49,8.10
2019,12,03,14,50,8.20
2019,12,03,14,51,8.20
2019,12,03,14,52,8.20
2019,12,03,14,53,8.20
2019,12,03,14,54,8.20
2019,12,03,14,55,8.30
2019,12,03,14,56,8.30
2019,12,03,14,57,8.40
2019,12,03,14,58,8.50
2019,12,03,14,59,8.60
2019,12,03,15,00,8.70
2019,12,03,15,01,8.70
2019,12,03,15,02,8.80
2019,12,03,15,03,8.80
2019,12,03,15,04,8.90
2019,12,03,15,05,8.90
2019,12,03,15,06,8.90
2019,12,03,15,07,9.00
2019,12,03,15,08,9.00
2019,12,03,15,09,9.00
2019,12,03,15,10,9.00
2019,12,03,15,11,9.10
2019,12,03,15,12,9.10
2019,12,03,15,13,9.10
2019,12,03,15,14,9.10
2019,12,03,15,15,9.10
2019,12,03,15,16,9.10
2019,12,03,15,17,9.20
2019,12,03,15,18,9.20
2019,12,03,15,19,9.20
2019,12,03,15,20,9.20
2019,12,03,15,21,9.20
2019,12,03,15,22,9.20
2019,12,03,15,23,9.20
2019,12,03,15,24,9.30
2019,12,03,15,25,9.30
2019,12,03,15,26,9.30
2019,12,03,15,27,9.30
2019,12,03,15,28,9.30
2019,12,03,15,29,9.30
2019,12,03,15,30,9.30
2019,12,03,15,31,9.30
2019,12,03,15,32,9.30
2019,12,03,15,33,9.30
2019,12,03,15,34,9.30
2019,12,03,15,35,9.30
2019,12,03,15,36,9.30
2019,12,03,15,37,9.30
2019,12,03,15,38,9.30
2019,12,03,15,39,9.30
2019,12,03,15,40,9.30
2019,12,03,15,41,9.30
2019,12,03,15,42,9.30
2019,12,03,15,43,9.30
2019,12,03,15,44,9.30
2019,12,03,15,45,9.30
2019,12,03,15,46,9.30
2019,12,03,15,47,9.30
2019,12,03,15,48,9.30
2019,12,03,15,49,9.30
2019,12,03,15,50,9.30
2019,12,03,15,51,9.30
2019,12,03,15,52,9.30
2019,12,03,15,53,9.30
2019,12,03,15,54,9.30
2019,12,03,15,55,9.30
2019,12,03,15,56,9.30
2019,12,03,15,57,9.30
2019,12,03,15,58,9.30
2019,12,03,15,59,9.30
2019,12,03,16,00,9.30
2019,12,03,16,01,9.30
2019,12,03,16,02,9.30
2019,12,03,16,03,9.30
2019,12,03,16,04,9.30
2019,12,03,16,05,9.30
2019,12,03,16,06,9.30
2019,12,03,16,07,9.30
2019,12,03,16,08,9.30
2019,12,03,16,09,9.30
2019,12,03,16,10,9.30
2019,12,03,16,11,9.30
2019,12,03,16,12,9.30
2019,12,03,16,13,9.30
2019,12,03,16,14,9.30
2019,12,03,16,15,9.30
2019,12,03,16,16,9.20
2019,12,03,16,17,9.20
2019,12,03,16,18,9.20
2019,12,03,16,19,9.20
2019,12,03,16,20,9.20
2019,12,03,16,21,9.20
2019,12,03,16,22,9.20
2019,12,03,16,23,9.20
2019,12,03,16,24,9.20
2019,12,03,16,25,9.20
2019,12,03,16,26,9.10
2019,12,03,16,27,9.10
2019,12,03,16,28,9.10
2019,12,03,16,29,9.00
2019,12,03,16,30,9.00
2019,12,03,16,31,8.90
2019,12,03,16,32,8.90
2019,12,03,16,33,8.90
2019,12,03,16,34,8.80
2019,12,03,16,35,8.80
2019,12,03,16,36,8.80
2019,12,03,16,37,8.80
2019,12,03,16,38,8.70
2019,12,03,16,39,8.70
2019,12,03,16,40,8.70
2019,12,03,16,41,8.70
2019,12,03,16,42,8.70
2019,12,03,16,43,8.60
2019,12,03,16,44,8.60
2019,12,03,16,45,8.60
2019,12,03,16,46,8.60
2019,12,03,16,47,8.60
2019,12,03,16,48,8.60
2019,12,03,16,49,8.60
2019,12,03,16,50,8.50
2019,12,03,16,51,8.50
2019,12,03,16,52,8.50
2019,12,03,16,53,8.40
2019,12,03,16,54,8.40
2019,12,03,16,55,8.40
2019,12,03,16,56,8.40
2019,12,03,16,57,8.30
2019,12,03,16,58,8.30
2019,12,03,16,59,8.30
2019,12,03,17,00,8.30
2019,12,03,17,01,8.30
2019,12,03,17,02,8.30
2019,12,03,17,03,8.30
2019,12,03,17,04,8.20
2019,12,03,17,05,8.20
2019,12,03,17,06,8.20
2019,12,03,17,07,8.20
2019,12,03,17,08,8.20
2019,12,03,17,09,8.20
2019,12,03,17,10,8.20
2019,12,03,17,11,8.20
2019,12,03,17,12,8.10
2019,12,03,17,13,8.10
2019,12,03,17,14,8.10
2019,12,03,17,15,8.10
2019,12,03,17,16,8.10
2019,12,03,17,17,8.10
2019,12,03,17,18,8.00
2019,12,03,17,19,8.00
2019,12,03,17,20,8.00
2019,12,03,17,21,8.00
2019,12,03,17,22,8.00
2019,12,03,17,23,8.00
2019,12,03,17,24,7.90
2019,12,03,17,25,7.90
2019,12,03,17,26,7.90
2019,12,03,17,27,7.90
2019,12,03,17,28,7.90
2019,12,03,17,29,7.90
2019,12,03,17,30,7.90
2019,12,03,17,31,7.90
2019,12,03,17,32,7.90
2019,12,03,17,33,7.90
2019,12,03,17,34,7.80
2019,12,03,17,35,7.80
2019,12,03,17,36,7.80
2019,12,03,17,37,7.80
2019,12,03,17,38,7.90
2019,12,03,17,39,7.90
2019,12,03,17,40,7.90
2019,12,03,17,41,8.00
2019,12,03,17,42,7.90
2019,12,03,17,43,7.90
2019,12,03,17,44,7.90
2019,12,03,17,45,7.80
2019,12,03,17,46,7.80
2019,12,03,17,47,7.90
2019,12,03,17,48,7.90
2019,12,03,17,49,7.90
2019,12,03,17,50,7.90
2019,12,03,17,51,7.90
2019,12,03,17,52,7.90
2019,12,03,17,53,8.00
2019,12,03,17,54,8.00
2019,12,03,17,55,8.10
2019,12,03,17,56,8.10
2019,12,03,17,57,8.10
2019,12,03,17,58,8.20
2019,12,03,17,59,8.20
2019,12,03,18,00,8.20
2019,12,03,18,01,8.30
2019,12,03,18,02,8.40
2019,12,03,18,03,8.40
2019,12,03,18,04,8.40
2019,12,03,18,05,8.50
2019,12,03,18,06,8.50
2019,12,03,18,07,8.60
2019,12,03,18,08,8.60
2019,12,03,18,09,8.60
2019,12,03,18,10,8.60
2019,12,03,18,11,8.60
2019,12,03,18,12,8.60
2019,12,03,18,13,8.60
2019,12,03,18,14,8.60
2019,12,03,18,15,8.60
2019,12,03,18,16,8.60
2019,12,03,18,17,8.60
2019,12,03,18,18,8.60
2019,12,03,18,19,8.50
2019,12,03,18,20,8.50
2019,12,03,18,21,8.50
2019,12,03,18,22,8.50
2019,12,03,18,23,8.50
2019,12,03,18,24,8.50
2019,12,03,18,25,8.50
2019,12,03,18,26,8.60
2019,12,03,18,27,8.60
2019,12,03,18,28,8.60
2019,12,03,18,29,8.70
2019,12,03,18,30,8.70
2019,12,03,18,31,8.70
2019,12,03,18,32,8.70
2019,12,03,18,33,8.70
2019,12,03,18,34,8.70
2019,12,03,18,35,8.70
2019,12,03,18,36,8.70
2019,12,03,18,37,8.70
2019,12,03,18,38,8.70
2019,12,03,18,39,8.70
2019,12,03,18,40,8.70
2019,12,03,18,41,8.70
2019,12,03,18,42,8.70
2019,12,03,18,43,8.70
2019,12,03,18,44,8.70
2019,12,03,18,45,8.70
2019,12,03,18,46,8.70
2019,12,03,18,47,8.70
2019,12,03,18,48,8.60
2019,12,03,18,49,8.60
2019,12,03,18,50,8.60
2019,12,03,18,51,8.60
2019,12,03,18,52,8.60
2019,12,03,18,53,8.50
2019,12,03,18,54,8.50
2019,12,03,18,55,8.40
2019,12,03,18,56,8.40
2019,12,03,18,57,8.40
2019,12,03,18,58,8.30
2019,12,03,18,59,8.30
2019,12,03,19,00,8.20
2019,12,03,19,01,8.20
2019,12,03,19,02,8.10
2019,12,03,19,03,8.10
2019,12,03,19,04,8.00
2019,12,03,19,05,8.00
2019,12,03,19,06,7.90
2019,12,03,19,07,7.80
2019,12,03,19,08,7.80
2019,12,03,19,09,7.80
2019,12,03,19,10,7.80
2019,12,03,19,11,7.70
2019,12,03,19,12,7.70
2019,12,03,19,13,7.70
2019,12,03,19,14,7.70
2019,12,03,19,15,7.60
2019,12,03,19,16,7.60
2019,12,03,19,17,7.60
2019,12,03,19,18,7.60
2019,12,03,19,19,7.50
2019,12,03,19,20,7.50
2019,12,03,19,21,7.40
2019,12,03,19,22,7.40
2019,12,03,19,23,7.40
2019,12,03,19,24,7.30
2019,12,03,19,25,7.30
2019,12,03,19,26,7.30
2019,12,03,19,27,7.30
2019,12,03,19,28,7.30
2019,12,03,19,29,7.30
2019,12,03,19,30,7.30
2019,12,03,19,31,7.30
2019,12,03,19,32,7.30
2019,12,03,19,33,7.30
2019,12,03,19,34,7.20
2019,12,03,19,35,7.20
2019,12,03,19,36,7.20
2019,12,03,19,37,7.20
2019,12,03,19,38,7.20
2019,12,03,19,39,7.20
2019,12,03,19,40,7.20
2019,12,03,19,41,7.20
2019,12,03,19,42,7.20
2019,12,03,19,43,7.20
2019,12,03,19,44,7.20
2019,12,03,19,45,7.20
2019,12,03,19,46,7.20
2019,12,03,19,47,7.30
2019,12,03,19,48,7.30
2019,12,03,19,49,7.30
2019,12,03,19,50,7.30
2019,12,03,19,51,7.30
2019,12,03,19,52,7.30
2019,12,03,19,53,7.30
2019,12,03,19,54,7.30
2019,12,03,19,55,7.20
2019,12,03,19,56,7.30
2019,12,03,19,57,7.20
2019,12,03,19,58,7.20
2019,12,03,19,59,7.30
2019,12,03,20,00,7.30
2019,12,03,20,01,7.40
2019,12,03,20,02,7.40
2019,12,03,20,03,7.40
2019,12,03,20,04,7.40
2019,12,03,20,05,7.40
2019,12,03,20,06,7.40
2019,12,03,20,07,7.40
2019,12,03,20,08,7.40
2019,12,03,20,09,7.40
2019,12,03,20,10,7.40
2019,12,03,20,11,7.40
2019,12,03,20,12,7.40
2019,12,03,20,13,7.30
2019,12,03,20,14,7.30
2019,12,03,20,15,7.20
2019,12,03,20,16,7.20
2019,12,03,20,17,7.20
2019,12,03,20,18,7.20
2019,12,03,20,19,7.20
2019,12,03,20,20,7.20
2019,12,03,20,21,7.20
2019,12,03,20,22,7.20
2019,12,03,20,23,7.20
2019,12,03,20,24,7.20
2019,12,03,20,25,7.20
2019,12,03,20,26,7.20
2019,12,03,20,27,7.20
2019,12,03,20,28,7.20
2019,12,03,20,29,7.20
2019,12,03,20,30,7.20
2019,12,03,20,31,7.20
2019,12,03,20,32,7.20
2019,12,03,20,33,7.20
2019,12,03,20,34,7.20
2019,12,03,20,35,7.20
2019,12,03,20,36,7.20
2019,12,03,20,37,7.20
2019,12,03,20,38,7.20
2019,12,03,20,39,7.20
2019,12,03,20,40,7.20
2019,12,03,20,41,7.20
2019,12,03,20,42,7.10
2019,12,03,20,43,7.10
2019,12,03,20,44,7.10
2019,12,03,20,45,7.10
2019,12,03,20,46,7.10
2019,12,03,20,47,7.10
2019,12,03,20,48,7.00
2019,12,03,20,49,7.00
2019,12,03,20,50,7.00
2019,12,03,20,51,6.90
2019,12,03,20,52,6.90
2019,12,03,20,53,6.90
2019,12,03,20,54,6.90
2019,12,03,20,55,6.90
2019,12,03,20,56,6.90
2019,12,03,20,57,6.90
2019,12,03,20,58,6.90
2019,12,03,20,59,6.80
2019,12,03,21,00,6.80
2019,12,03,21,01,6.80
2019,12,03,21,02,6.80
2019,12,03,21,03,6.70
2019,12,03,21,04,6.70
2019,12,03,21,05,6.70
2019,12,03,21,06,6.80
2019,12,03,21,07,6.80
2019,12,03,21,08,6.80
2019,12,03,21,09,6.80
2019,12,03,21,10,6.80
2019,12,03,21,11,6.80
2019,12,03,21,12,6.90
2019,12,03,21,13,6.90
2019,12,03,21,14,6.90
2019,12,03,21,15,6.90
2019,12,03,21,16,6.90
2019,12,03,21,17,6.90
2019,12,03,21,18,6.90
2019,12,03,21,19,6.90
2019,12,03,21,20,6.90
2019,12,03,21,21,6.90
2019,12,03,21,22,6.80
2019,12,03,21,23,6.80
2019,12,03,21,24,6.80
2019,12,03,21,25,6.80
2019,12,03,21,26,6.80
2019,12,03,21,27,6.80
2019,12,03,21,28,6.90
2019,12,03,21,29,6.90
2019,12,03,21,30,6.80
2019,12,03,21,31,6.80
2019,12,03,21,32,6.80
2019,12,03,21,33,6.80
2019,12,03,21,34,6.80
2019,12,03,21,35,6.80
2019,12,03,21,36,6.80
2019,12,03,21,37,6.80
2019,12,03,21,38,6.90
2019,12,03,21,39,6.90
2019,12,03,21,40,6.90
2019,12,03,21,41,6.90
2019,12,03,21,42,6.90
2019,12,03,21,43,6.90
2019,12,03,21,44,6.90
2019,12,03,21,45,6.90
2019,12,03,21,46,6.90
2019,12,03,21,47,6.90
2019,12,03,21,48,6.90
2019,12,03,21,49,7.00
2019,12,03,21,50,7.00
2019,12,03,21,51,7.10
2019,12,03,21,52,7.10
2019,12,03,21,53,7.00
2019,12,03,21,54,7.00
2019,12,03,21,55,6.90
2019,12,03,21,56,6.90
2019,12,03,21,57,6.90
2019,12,03,21,58,6.90
2019,12,03,21,59,6.90
2019,12,03,22,00,6.80
2019,12,03,22,01,6.80
2019,12,03,22,02,6.80
2019,12,03,22,03,6.80
2019,12,03,22,04,6.80
2019,12,03,22,05,6.80
2019,12,03,22,06,6.80
2019,12,03,22,07,6.70
2019,12,03,22,08,6.70
2019,12,03,22,09,6.70
2019,12,03,22,10,6.60
2019,12,03,22,11,6.60
2019,12,03,22,12,6.60
2019,12,03,22,13,6.60
2019,12,03,22,14,6.60
2019,12,03,22,15,6.60
2019,12,03,22,16,6.60
2019,12,03,22,17,6.60
2019,12,03,22,18,6.50
2019,12,03,22,19,6.50
2019,12,03,22,20,6.40